Location: Orange Harbor Mobile Home Park
(26.6923°N, 81.7937°W)
Time: 01:43:14
(UTC+00:00)

Tiangong - Pass Details

Date: 30 June 2021
Orbit: 373 x 386 km, 41.5° (Epoch: 02 August)

Event Time Altitude Azimuth Distance (km) Brightness Sun altitude
Rises 10:02:27 0° 304° (WNW) 2,235 4.7 -7.6°
Reaches altitude 10° 10:04:30 10° 303° (WNW) 1,385 3.6 -7.2°
Maximum altitude 10:07:38 83° 216° (SW) 384 1.0 -6.6°
Drops below altitude 10° 10:10:46 10° 128° (SE) 1,389 4.2 -6.0°
Sets 10:12:50 0° 127° (SE) 2,242 5.3 -5.6°
